Location: Horowhenua
(40.7500°S, 175.3333°E)
Time: 06:10:58
(UTC+00:00)

Meteor 1-21 - Pass Details

Date: 28 January 2023
Orbit: 845 x 887 km, 81.2° (Epoch: 01 April)

Event Time Altitude Azimuth Distance (km) Brightness Sun altitude
Exits shadow 15:41:09 14° 359° (N) 2,209 6.0 -16.5°
Maximum altitude 15:46:03 76° 83° (E) 883 4.4 -15.8°
Drops below altitude 10° 15:51:43 10° 167° (SSE) 2,500 7.5 -15.0°
Sets 15:54:09 0° 168° (SSE) 3,443 8.3 -14.7°
